Terug naar catalogus

SCOUT G-1 DEB

ActiefPO
NORAD 18562·DEBRIS·🇺🇸 United States

Gelanceerd Sep 16, 1987 vanaf Vandenberg Space Force Base

Loading…

Volgende Passages (komende 24 uur)

TLE

VersSource: Space-Track

Epoch: Sep 14, 2026, 16:03 UTC

1 18562U 87080H   26257.66880978  .00000199  00000-0  31967-3 0  9997
2 18562  89.8965 153.3994 0177810 261.7390 124.7780 13.40164621902520

Volg SCOUT G-1 DEB in realtime met AllMySat

Download on the App Store